,,,PA_Meas_PMT16A,,PR_Meas_QMR101_102,,RH_Meas_QMH101,,SR_Meas_QMS101,,TA_Meas_QMH101,,GenWind,,GenWind,
date,time,status,PA,status,PR,status,RH,status,SR,status,TA,status,DirAvg,status,SpdAvg,
2009-04-23, 00:00:04,VALID,1001.79,VALID,0,VALID,93.1958,VALID,0,VALID,23.4688,VALID,67,VALID,0.634766,
2009-04-23, 00:01:04,VALID,1001.77,VALID,0,VALID,93.0966,VALID,0,VALID,23.4688,VALID,67,VALID,0.713281,
2009-04-23, 00:02:04,VALID,1001.75,VALID,0,VALID,93.0051,VALID,0,VALID,23.4884,VALID,67,VALID,0.805078,
2009-04-23, 00:03:04,VALID,1001.74,VALID,0,VALID,93.0432,VALID,0,VALID,23.5079,VALID,74,VALID,0.712109,
2009-04-23, 00:04:04,VALID,1001.73,VALID,0,VALID,92.8601,VALID,0,VALID,23.5079,VALID,74,VALID,0.676953,
2009-04-23, 00:05:04,VALID,1001.76,VALID,0,VALID,92.9135,VALID,0,VALID,23.5061,VALID,74,VALID,0.550781,
2009-04-23, 00:06:04,VALID,1001.74,VALID,0,VALID,92.8754,VALID,0,VALID,23.4866,VALID,72,VALID,0.705469,
2009-04-23, 00:07:04,VALID,1001.74,VALID,0,VALID,92.9974,VALID,0,VALID,23.5274,VALID,67,VALID,0.510156,
2009-04-23, 00:08:04,VALID,1001.69,VALID,0,VALID,92.7533,VALID,0,VALID,23.5274,VALID,66,VALID,1.05,
2009-04-23, 00:09:04,VALID,1001.69,VALID,0,VALID,92.6923,VALID,0,VALID,23.5274,VALID,66,VALID,0.870313,
2009-04-23, 00:10:04,VALID,1001.66,VALID,0,VALID,92.8906,VALID,0,VALID,23.5469,VALID,73,VALID,1.00273,
2009-04-23, 00:11:04,VALID,1001.63,VALID,0,VALID,92.944,VALID,0,VALID,23.5256,VALID,85,VALID,1.0625,
2009-04-23, 00:12:04,VALID,1001.6,VALID,0,VALID,93.1424,VALID,0,VALID,23.5664,VALID,82,VALID,0.925,
2009-04-23, 00:13:04,VALID,1001.58,VALID,0,VALID,93.2416,VALID,0,VALID,23.5859,VALID,83,VALID,0.914453,
2009-04-23, 00:14:04,VALID,1001.54,VALID,0,VALID,93.1271,VALID,0,VALID,23.5646,VALID,82,VALID,1.03984,
2009-04-23, 00:15:04,VALID,1001.53,VALID,0,VALID,93.1195,VALID,0,VALID,23.5859,VALID,77,VALID,1.00742,
2009-04-23, 00:16:04,VALID,1001.48,VALID,0,VALID,93.1729,VALID,0,VALID,23.5451,VALID,85,VALID,0.653125,
2009-04-23, 00:17:04,VALID,1001.47,VALID,0,VALID,93.1729,VALID,0,VALID,23.5664,VALID,88,VALID,0.830469,
2009-04-23, 00:18:04,VALID,1001.44,VALID,0,VALID,93.1424,VALID,0,VALID,23.5664,VALID,93,VALID,0.859375,
2009-04-23, 00:19:04,VALID,1001.41,VALID,0,VALID,93.1577,VALID,0,VALID,23.5664,VALID,91,VALID,0.657031,
2009-04-23, 00:20:04,VALID,1001.38,VALID,0,VALID,93.3103,VALID,0,VALID,23.5664,VALID,104,VALID,0.641016,
2009-04-23, 00:21:04,VALID,1001.34,VALID,0,VALID,93.2721,VALID,0,VALID,23.5469,VALID,104,VALID,0.601172,
2009-04-23, 00:22:04,VALID,1001.33,VALID,0,VALID,93.3179,VALID,0,VALID,23.5469,VALID,102,VALID,0.527734,
2009-04-23, 00:23:04,VALID,1001.32,VALID,0,VALID,93.1653,VALID,0,VALID,23.5274,VALID,96,VALID,0.698828,
2009-04-23, 00:24:04,VALID,1001.29,VALID,0,VALID,93.1119,VALID,0,VALID,23.5274,VALID,93,VALID,0.555078,
2009-04-23, 00:25:04,VALID,1001.27,VALID,0,VALID,93.2874,VALID,0,VALID,23.5469,VALID,92,VALID,0.414453,
2009-04-23, 00:26:04,VALID,1001.27,VALID,0,VALID,93.4628,VALID,0,VALID,23.5469,VALID,90,VALID,0.441797,
2009-04-23, 00:27:04,VALID,1001.23,VALID,0,VALID,93.4857,VALID,0,VALID,23.5469,VALID,90,VALID,0.424609,
2009-04-23, 00:28:04,VALID,1001.22,VALID,0,VALID,93.2645,VALID,0,VALID,23.5274,VALID,92,VALID,0.506641,
2009-04-23, 00:29:04,VALID,1001.22,VALID,0,VALID,93.1271,VALID,0,VALID,23.5079,VALID,92,VALID,0.413281,
2009-04-23, 00:30:04,VALID,1001.2,VALID,0,VALID,93.2034,VALID,0,VALID,23.5079,VALID,92,VALID,0.274219,
2009-04-23, 00:31:04,VALID,1001.16,VALID,0,VALID,93.2797,VALID,0,VALID,23.5079,VALID,92,VALID,0.269141,
2009-04-23, 00:32:04,VALID,1001.17,VALID,0,VALID,93.2568,VALID,0,VALID,23.5079,VALID,95,VALID,0.310937,
2009-04-23, 00:33:04,VALID,1001.12,VALID,0,VALID,93.3331,VALID,0,VALID,23.4884,VALID,97,VALID,0.376563,
2009-04-23, 00:34:04,VALID,1001.11,VALID,0,VALID,93.4552,VALID,0,VALID,23.5079,VALID,123,VALID,0.508203,
2009-04-23, 00:35:04,VALID,1001.09,VALID,0,VALID,93.5697,VALID,0,VALID,23.5061,VALID,123,VALID,0.552344,
2009-04-23, 00:36:04,VALID,1001.04,VALID,0,VALID,93.562,VALID,0,VALID,23.5274,VALID,123,VALID,0.464063,
2009-04-23, 00:37:04,VALID,1001.01,VALID,0,VALID,93.6612,VALID,0,VALID,23.5274,VALID,123,VALID,0.444922,
2009-04-23, 00:38:04,VALID,1000.96,VALID,0,VALID,93.6994,VALID,0,VALID,23.5469,VALID,128,VALID,0.439453,
2009-04-23, 00:39:04,VALID,1000.96,VALID,0,VALID,93.707,VALID,0,VALID,23.5256,VALID,131,VALID,0.453906,
2009-04-23, 00:40:04,VALID,1000.96,VALID,0,VALID,93.7223,VALID,0,VALID,23.5469,VALID,131,VALID,0.196484,
2009-04-23, 00:41:04,VALID,1000.92,VALID,0,VALID,93.7909,VALID,0,VALID,23.5451,VALID,131,VALID,0.176953,
2009-04-23, 00:42:04,VALID,1000.93,VALID,0,VALID,93.8291,VALID,0,VALID,23.5451,VALID,131,VALID,0.246094,
2009-04-23, 00:43:04,VALID,1000.9,VALID,0,VALID,93.8062,VALID,0,VALID,23.5451,VALID,131,VALID,0.117969,
2009-04-23, 00:44:04,VALID,1000.88,VALID,0,VALID,93.768,VALID,0,VALID,23.5451,VALID,131,VALID,0.335547,
2009-04-23, 00:45:04,VALID,1000.85,VALID,0,VALID,93.8138,VALID,0,VALID,23.5451,VALID,131,VALID,0.358203,
2009-04-23, 00:46:04,VALID,1000.84,VALID,0,VALID,93.8825,VALID,0,VALID,23.5841,VALID,131,VALID,0.296875,
2009-04-23, 00:47:04,VALID,1000.81,VALID,0,VALID,93.8291,VALID,0,VALID,23.5646,VALID,89,VALID,0.417969,
2009-04-23, 00:48:04,VALID,1000.79,VALID,0,VALID,93.8214,VALID,0,VALID,23.5646,VALID,89,VALID,0.386719,
2009-04-23, 00:49:04,VALID,1000.79,VALID,0,VALID,93.7299,VALID,0,VALID,23.5451,VALID,80,VALID,0.553906,
2009-04-23, 00:50:04,VALID,1000.74,VALID,0,VALID,93.6231,VALID,0,VALID,23.5451,VALID,53,VALID,0.648047,
2009-04-23, 00:51:04,VALID,1000.76,VALID,0,VALID,93.7757,VALID,0.112286,VALID,23.5646,VALID,53,VALID,0.748828,
2009-04-23, 00:52:04,VALID,1000.75,VALID,0,VALID,93.6917,VALID,0,VALID,23.5451,VALID,52,VALID,0.846094,
2009-04-23, 00:53:04,VALID,1000.73,VALID,0,VALID,93.7299,VALID,0,VALID,23.5451,VALID,47,VALID,0.682422,
2009-04-23, 00:54:04,VALID,1000.73,VALID,0,VALID,93.6078,VALID,0,VALID,23.5451,VALID,47,VALID,0.751953,
2009-04-23, 00:55:04,VALID,1000.69,VALID,0,VALID,93.5697,VALID,0,VALID,23.5664,VALID,45,VALID,0.714844,
2009-04-23, 00:56:04,VALID,1000.68,VALID,0,VALID,93.44,VALID,0,VALID,23.5256,VALID,32,VALID,0.678906,
2009-04-23, 00:57:04,VALID,1000.65,VALID,0,VALID,93.3103,VALID,0,VALID,23.5256,VALID,30,VALID,0.580078,
2009-04-23, 00:58:04,VALID,1000.64,VALID,0,VALID,93.3484,VALID,0,VALID,23.5274,VALID,30,VALID,0.5375,
2009-04-23, 00:59:04,VALID,1000.6,VALID,0,VALID,93.356,VALID,0,VALID,23.5061,VALID,30,VALID,0.641797,
2009-04-23, 01:00:04,VALID,1000.56,VALID,0,VALID,93.3942,VALID,0,VALID,23.5061,VALID,30,VALID,0.446484,
2009-04-23, 01:01:04,VALID,1000.51,VALID,0,VALID,93.2721,VALID,0.112286,VALID,23.5061,VALID,30,VALID,0.515625,
2009-04-23, 01:02:04,VALID,1000.48,VALID,0,VALID,93.3484,VALID,0,VALID,23.5274,VALID,31,VALID,0.494922,
2009-04-23, 01:03:04,VALID,1000.45,VALID,0,VALID,93.5697,VALID,0,VALID,23.5256,VALID,36,VALID,0.508594,
2009-04-23, 01:04:04,VALID,1000.44,VALID,0,VALID,93.3179,VALID,0,VALID,23.5061,VALID,78,VALID,0.894531,
2009-04-23, 01:05:04,VALID,1000.4,VALID,0,VALID,93.1119,VALID,0,VALID,23.5061,VALID,90,VALID,0.690234,
2009-04-23, 01:06:04,VALID,1000.4,VALID,0,VALID,93.1348,VALID,0,VALID,23.5061,VALID,90,VALID,0.608594,
2009-04-23, 01:07:04,VALID,1000.36,VALID,0,VALID,93.2492,VALID,0,VALID,23.5256,VALID,90,VALID,0.508984,
2009-04-23, 01:08:04,VALID,1000.35,VALID,0,VALID,93.356,VALID,0,VALID,23.5256,VALID,90,VALID,0.439453,
2009-04-23, 01:09:04,VALID,1000.29,VALID,0,VALID,93.2111,VALID,0,VALID,23.5469,VALID,90,VALID,0.542578,
2009-04-23, 01:10:04,VALID,1000.25,VALID,0,VALID,93.2187,VALID,0,VALID,23.5256,VALID,90,VALID,0.409375,
2009-04-23, 01:11:04,VALID,1000.27,VALID,0,VALID,93.2645,VALID,0,VALID,23.5061,VALID,90,VALID,0.299219,
2009-04-23, 01:12:04,VALID,1000.24,VALID,0,VALID,93.356,VALID,0,VALID,23.5469,VALID,90,VALID,0.440234,
2009-04-23, 01:13:04,VALID,1000.26,VALID,0,VALID,93.4018,VALID,0,VALID,23.5256,VALID,90,VALID,0.423828,
2009-04-23, 01:14:04,VALID,1000.22,VALID,0,VALID,93.44,VALID,0,VALID,23.5256,VALID,49,VALID,0.590625,
2009-04-23, 01:15:04,VALID,1000.24,VALID,0,VALID,93.2187,VALID,0,VALID,23.5061,VALID,41,VALID,0.826953,
2009-04-23, 01:16:04,VALID,1000.19,VALID,0,VALID,93.3866,VALID,0,VALID,23.5061,VALID,35,VALID,0.851563,
2009-04-23, 01:17:04,VALID,1000.19,VALID,0,VALID,93.3866,VALID,0,VALID,23.5274,VALID,35,VALID,0.782422,
2009-04-23, 01:18:04,VALID,1000.19,VALID,0,VALID,93.4934,VALID,0,VALID,23.5274,VALID,35,VALID,0.607813,
2009-04-23, 01:19:04,VALID,1000.13,VALID,0,VALID,93.5773,VALID,0,VALID,23.5256,VALID,35,VALID,0.347656,
2009-04-23, 01:20:04,VALID,1000.16,VALID,0,VALID,93.5926,VALID,0,VALID,23.5061,VALID,35,VALID,0.321094,
2009-04-23, 01:21:04,VALID,1000.12,VALID,0,VALID,93.6994,VALID,0,VALID,23.5061,VALID,35,VALID,0.137109,
2009-04-23, 01:22:04,VALID,1000.11,VALID,0,VALID,93.7757,VALID,0,VALID,23.5061,VALID,35,VALID,0.341016,
2009-04-23, 01:23:04,VALID,1000.08,VALID,0,VALID,93.7223,VALID,0,VALID,23.4866,VALID,35,VALID,0.308594,
2009-04-23, 01:24:04,VALID,1000.08,VALID,0,VALID,93.7375,VALID,0,VALID,23.4866,VALID,35,VALID,0.257813,
2009-04-23, 01:25:04,VALID,1000.04,VALID,0,VALID,93.768,VALID,0,VALID,23.4866,VALID,35,VALID,0.385938,
2009-04-23, 01:26:04,VALID,1000.05,VALID,0,VALID,93.7375,VALID,0,VALID,23.5079,VALID,35,VALID,0.337891,
2009-04-23, 01:27:04,VALID,1000.04,VALID,0,VALID,93.6917,VALID,0,VALID,23.4866,VALID,35,VALID,0.46875,
2009-04-23, 01:28:04,VALID,1000.02,VALID,0,VALID,93.7833,VALID,0,VALID,23.4866,VALID,37,VALID,0.294922,
2009-04-23, 01:29:04,VALID,1000,VALID,0,VALID,93.4628,VALID,0.112286,VALID,23.4671,VALID,70,VALID,0.576172,
2009-04-23, 01:30:04,VALID,999.991,VALID,0,VALID,93.5239,VALID,0,VALID,23.4884,VALID,101,VALID,0.766797,
2009-04-23, 01:31:04,VALID,999.964,VALID,0,VALID,93.6002,VALID,0,VALID,23.5079,VALID,101,VALID,0.33125,
2009-04-23, 01:32:04,VALID,999.972,VALID,0,VALID,93.6383,VALID,0,VALID,23.4866,VALID,101,VALID,0.339844,
2009-04-23, 01:33:04,VALID,999.946,VALID,0,VALID,93.3713,VALID,0,VALID,23.4671,VALID,69,VALID,1.02148,
2009-04-23, 01:34:04,VALID,999.955,VALID,0,VALID,93.3026,VALID,0,VALID,23.4671,VALID,70,VALID,0.835156,
2009-04-23, 01:35:04,VALID,999.912,VALID,0,VALID,93.1882,VALID,0,VALID,23.4671,VALID,76,VALID,0.874219,
2009-04-23, 01:36:04,VALID,999.91,VALID,0,VALID,93.2492,VALID,0,VALID,23.4866,VALID,82,VALID,0.964844,
2009-04-23, 01:37:04,VALID,999.875,VALID,0,VALID,93.4857,VALID,0,VALID,23.5061,VALID,83,VALID,0.526172,
2009-04-23, 01:38:04,VALID,999.884,VALID,0,VALID,93.5697,VALID,0,VALID,23.5274,VALID,90,VALID,0.625,
2009-04-23, 01:39:04,VALID,999.874,VALID,0,VALID,93.5391,VALID,0,VALID,23.5274,VALID,100,VALID,0.729688,
2009-04-23, 01:40:04,VALID,999.873,VALID,0,VALID,93.5926,VALID,0,VALID,23.5274,VALID,101,VALID,0.494531,
2009-04-23, 01:41:04,VALID,999.852,VALID,0,VALID,93.646,VALID,0,VALID,23.5469,VALID,102,VALID,0.409375,
2009-04-23, 01:42:04,VALID,999.864,VALID,0,VALID,93.6917,VALID,0,VALID,23.5469,VALID,102,VALID,0.614844,
2009-04-23, 01:43:04,VALID,999.827,VALID,0,VALID,93.768,VALID,0,VALID,23.5256,VALID,125,VALID,0.500781,
2009-04-23, 01:44:04,VALID,999.824,VALID,0,VALID,93.8138,VALID,0,VALID,23.5469,VALID,125,VALID,0.383594,
2009-04-23, 01:45:04,VALID,999.805,VALID,0,VALID,93.8596,VALID,0,VALID,23.5469,VALID,125,VALID,0.291016,
2009-04-23, 01:46:04,VALID,999.827,VALID,0,VALID,93.8367,VALID,0,VALID,23.5469,VALID,125,VALID,0.213672,
2009-04-23, 01:47:04,VALID,999.809,VALID,0,VALID,93.8062,VALID,0,VALID,23.5469,VALID,125,VALID,0.372266,
2009-04-23, 01:48:04,VALID,999.803,VALID,0,VALID,93.8062,VALID,0,VALID,23.5469,VALID,125,VALID,0.290234,
2009-04-23, 01:49:04,VALID,999.81,VALID,0,VALID,93.8291,VALID,0,VALID,23.5469,VALID,123,VALID,0.45,
2009-04-23, 01:50:04,VALID,999.79,VALID,0,VALID,93.8367,VALID,0,VALID,23.5469,VALID,31,VALID,0.628125,
2009-04-23, 01:51:04,VALID,999.808,VALID,0,VALID,93.8138,VALID,0,VALID,23.5664,VALID,17,VALID,0.830078,
2009-04-23, 01:52:04,VALID,999.756,VALID,0,VALID,93.7909,VALID,0,VALID,23.5469,VALID,15,VALID,0.894141,
2009-04-23, 01:53:04,VALID,999.76,VALID,0,VALID,93.7375,VALID,0,VALID,23.5469,VALID,15,VALID,1.01641,
2009-04-23, 01:54:04,VALID,999.752,VALID,0,VALID,93.7604,VALID,0,VALID,23.5469,VALID,17,VALID,0.941406,
2009-04-23, 01:55:04,VALID,999.768,VALID,0,VALID,93.768,VALID,0,VALID,23.5469,VALID,18,VALID,0.968359,
2009-04-23, 01:56:04,VALID,999.769,VALID,0,VALID,93.7375,VALID,0,VALID,23.5469,VALID,17,VALID,0.969922,
2009-04-23, 01:57:04,VALID,999.754,VALID,0,VALID,93.7604,VALID,0,VALID,23.5469,VALID,11,VALID,0.836328,
2009-04-23, 01:58:04,VALID,999.786,VALID,0,VALID,93.7223,VALID,0,VALID,23.5274,VALID,360,VALID,1.01094,
2009-04-23, 01:59:04,VALID,999.789,VALID,0,VALID,93.7299,VALID,0,VALID,23.5274,VALID,356,VALID,0.698828,
2009-04-23, 02:00:04,VALID,999.789,VALID,0,VALID,93.8138,VALID,0,VALID,23.5469,VALID,359,VALID,1.0418,
2009-04-23, 02:01:04,VALID,999.754,VALID,0,VALID,93.7985,VALID,0,VALID,23.5664,VALID,5,VALID,1.22148,
2009-04-23, 02:02:04,VALID,999.732,VALID,0,VALID,93.7528,VALID,0,VALID,23.5664,VALID,23,VALID,1.35234,
2009-04-23, 02:03:04,VALID,999.724,VALID,0,VALID,93.6383,VALID,0,VALID,23.5451,VALID,31,VALID,0.928516,
2009-04-23, 02:04:04,VALID,999.726,VALID,0,VALID,93.5086,VALID,0,VALID,23.5664,VALID,45,VALID,1.07187,
2009-04-23, 02:05:04,VALID,999.749,VALID,0,VALID,93.5163,VALID,0,VALID,23.5451,VALID,28,VALID,0.582031,
2009-04-23, 02:06:04,VALID,999.771,VALID,0,VALID,93.501,VALID,0,VALID,23.5664,VALID,28,VALID,0.423047,
2009-04-23, 02:07:04,VALID,999.76,VALID,0,VALID,93.5315,VALID,0,VALID,23.5664,VALID,28,VALID,0.0316406,
2009-04-23, 02:08:04,VALID,999.797,VALID,0,VALID,93.5544,VALID,0,VALID,23.5664,VALID,28,VALID,0,
2009-04-23, 02:09:04,VALID,999.82,VALID,0,VALID,93.5849,VALID,0,VALID,23.5469,VALID,28,VALID,0,
2009-04-23, 02:10:04,VALID,999.806,VALID,0,VALID,93.7299,VALID,0,VALID,23.5469,VALID,28,VALID,0.221484,
2009-04-23, 02:11:04,VALID,999.806,VALID,0,VALID,93.8291,VALID,0,VALID,23.5469,VALID,28,VALID,0.551562,
2009-04-23, 02:12:04,VALID,999.771,VALID,0,VALID,93.8748,VALID,0,VALID,23.5664,VALID,59,VALID,0.820703,
2009-04-23, 02:13:04,VALID,999.767,VALID,0,VALID,93.7909,VALID,0,VALID,23.5451,VALID,65,VALID,1.03828,
2009-04-23, 02:14:04,VALID,999.75,VALID,0,VALID,93.8672,VALID,0,VALID,23.5859,VALID,73,VALID,1.03594,
2009-04-23, 02:15:04,VALID,999.777,VALID,0,VALID,93.9664,VALID,0,VALID,23.625,VALID,84,VALID,0.787891,
2009-04-23, 02:16:04,VALID,999.779,VALID,0,VALID,93.913,VALID,0,VALID,23.625,VALID,88,VALID,0.711328,
2009-04-23, 02:17:04,VALID,999.795,VALID,0,VALID,93.9206,VALID,0,VALID,23.625,VALID,88,VALID,0.381641,
2009-04-23, 02:18:04,VALID,999.769,VALID,0,VALID,93.9054,VALID,0,VALID,23.6054,VALID,88,VALID,0.233594,
2009-04-23, 02:19:04,VALID,999.766,VALID,0,VALID,93.8825,VALID,0,VALID,23.6054,VALID,88,VALID,0.333203,
2009-04-23, 02:20:04,VALID,999.767,VALID,0,VALID,93.8596,VALID,0,VALID,23.5646,VALID,88,VALID,0.352734,
2009-04-23, 02:21:04,VALID,999.747,VALID,0,VALID,93.8367,VALID,0,VALID,23.5859,VALID,88,VALID,0.496484,
2009-04-23, 02:22:04,VALID,999.768,VALID,0,VALID,93.6536,VALID,0,VALID,23.5664,VALID,88,VALID,0.7625,
2009-04-23, 02:23:04,VALID,999.755,VALID,0,VALID,93.646,VALID,0,VALID,23.5664,VALID,94,VALID,0.882031,
2009-04-23, 02:24:04,VALID,999.744,VALID,0,VALID,93.4552,VALID,0,VALID,23.5469,VALID,93,VALID,0.617188,
2009-04-23, 02:25:04,VALID,999.753,VALID,0,VALID,93.4781,VALID,0,VALID,23.5256,VALID,93,VALID,0.402344,
2009-04-23, 02:26:04,VALID,999.761,VALID,0,VALID,93.5239,VALID,0,VALID,23.5664,VALID,93,VALID,0.392578,
2009-04-23, 02:27:04,VALID,999.765,VALID,0,VALID,93.4552,VALID,0,VALID,23.5664,VALID,88,VALID,0.543359,
2009-04-23, 02:28:04,VALID,999.767,VALID,0,VALID,93.2797,VALID,0,VALID,23.5256,VALID,87,VALID,0.696094,
2009-04-23, 02:29:04,VALID,999.751,VALID,0,VALID,93.2416,VALID,0,VALID,23.5469,VALID,83,VALID,0.698438,
2009-04-23, 02:30:04,VALID,999.764,VALID,0,VALID,93.1424,VALID,0,VALID,23.5469,VALID,79,VALID,0.803906,
2009-04-23, 02:31:04,VALID,999.751,VALID,0,VALID,93.2034,VALID,0,VALID,23.5664,VALID,79,VALID,0.6125,
2009-04-23, 02:32:04,VALID,999.776,VALID,0,VALID,93.2263,VALID,0,VALID,23.5664,VALID,79,VALID,0.263672,
2009-04-23, 02:33:04,VALID,999.828,VALID,0,VALID,93.1958,VALID,0,VALID,23.5469,VALID,79,VALID,0.0464844,
2009-04-23, 02:34:04,VALID,999.822,VALID,0,VALID,93.3713,VALID,0,VALID,23.5451,VALID,79,VALID,0.480078,
2009-04-23, 02:35:04,VALID,999.846,VALID,0,VALID,93.3103,VALID,0,VALID,23.5664,VALID,79,VALID,0.418359,
2009-04-23, 02:36:04,VALID,999.809,VALID,0,VALID,93.234,VALID,0,VALID,23.5664,VALID,79,VALID,0.160938,
2009-04-23, 02:37:04,VALID,999.839,VALID,0,VALID,93.1882,VALID,0,VALID,23.5469,VALID,79,VALID,0.0355469,
2009-04-23, 02:38:04,VALID,999.867,VALID,0,VALID,93.2721,VALID,0,VALID,23.5664,VALID,79,VALID,0.403906,
2009-04-23, 02:39:04,VALID,999.877,VALID,0,VALID,93.1348,VALID,0,VALID,23.5469,VALID,79,VALID,0.422656,
2009-04-23, 02:40:04,VALID,999.895,VALID,0,VALID,93.3179,VALID,0,VALID,23.5451,VALID,79,VALID,0.358203,
2009-04-23, 02:41:04,VALID,999.933,VALID,0,VALID,93.3866,VALID,0,VALID,23.5451,VALID,79,VALID,0.390234,
2009-04-23, 02:42:04,VALID,999.939,VALID,0,VALID,93.4552,VALID,0,VALID,23.5451,VALID,79,VALID,0.308203,
2009-04-23, 02:43:04,VALID,999.974,VALID,0,VALID,93.5315,VALID,0,VALID,23.5451,VALID,79,VALID,0.273438,
2009-04-23, 02:44:04,VALID,1000.02,VALID,0,VALID,93.5849,VALID,0,VALID,23.5256,VALID,79,VALID,0.278125,
2009-04-23, 02:45:04,VALID,1000.01,VALID,0,VALID,93.6002,VALID,0,VALID,23.5451,VALID,79,VALID,0.164844,
2009-04-23, 02:46:04,VALID,1000.03,VALID,0,VALID,93.6536,VALID,0,VALID,23.5664,VALID,79,VALID,0.0046875,
2009-04-23, 02:47:04,VALID,1000.05,VALID,0,VALID,93.6765,VALID,0,VALID,23.5469,VALID,79,VALID,0,
2009-04-23, 02:48:04,VALID,1000.06,VALID,0,VALID,93.6841,VALID,0,VALID,23.5469,VALID,79,VALID,0,
2009-04-23, 02:49:04,VALID,1000.08,VALID,0,VALID,93.6688,VALID,0,VALID,23.5061,VALID,79,VALID,0,
2009-04-23, 02:50:04,VALID,1000.09,VALID,0,VALID,93.6383,VALID,0,VALID,23.5061,VALID,79,VALID,0,
2009-04-23, 02:51:04,VALID,1000.1,VALID,0,VALID,93.6688,VALID,0,VALID,23.5079,VALID,79,VALID,0,
2009-04-23, 02:52:04,VALID,1000.11,VALID,0,VALID,93.7375,VALID,0,VALID,23.4866,VALID,79,VALID,0,
2009-04-23, 02:53:04,VALID,1000.09,VALID,0,VALID,93.7146,VALID,0,VALID,23.4866,VALID,41,VALID,0,
2009-04-23, 02:54:04,VALID,1000.09,VALID,0,VALID,93.7146,VALID,0,VALID,23.4884,VALID,41,VALID,0,
2009-04-23, 02:55:04,VALID,1000.12,VALID,0,VALID,93.7604,VALID,0,VALID,23.4884,VALID,41,VALID,0,
2009-04-23, 02:56:04,VALID,1000.14,VALID,0,VALID,93.7451,VALID,0,VALID,23.4884,VALID,41,VALID,0,
2009-04-23, 02:57:04,VALID,1000.13,VALID,0,VALID,93.7833,VALID,0,VALID,23.4688,VALID,41,VALID,0,
2009-04-23, 02:58:04,VALID,1000.17,VALID,0,VALID,93.7528,VALID,0,VALID,23.4688,VALID,41,VALID,0,
2009-04-23, 02:59:04,VALID,1000.18,VALID,0,VALID,93.8138,VALID,0,VALID,23.4688,VALID,38,VALID,0,
2009-04-23, 03:00:04,VALID,1000.2,VALID,0,VALID,93.8596,VALID,0,VALID,23.4688,VALID,38,VALID,0,
2009-04-23, 03:01:04,VALID,1000.16,VALID,0,VALID,93.8748,VALID,0,VALID,23.428,VALID,38,VALID,0,
2009-04-23, 03:02:04,VALID,1000.18,VALID,0,VALID,93.8977,VALID,0,VALID,23.4493,VALID,38,VALID,0,
2009-04-23, 03:03:04,VALID,1000.18,VALID,0,VALID,93.8901,VALID,0,VALID,23.4493,VALID,38,VALID,0,
2009-04-23, 03:04:04,VALID,1000.22,VALID,0,VALID,93.8825,VALID,0,VALID,23.4493,VALID,38,VALID,0,
2009-04-23, 03:05:04,VALID,1000.21,VALID,0,VALID,93.913,VALID,0,VALID,23.4493,VALID,38,VALID,0,
2009-04-23, 03:06:04,VALID,1000.23,VALID,0,VALID,93.9359,VALID,0,VALID,23.4298,VALID,38,VALID,0,
2009-04-23, 03:07:04,VALID,1000.21,VALID,0,VALID,93.9588,VALID,0,VALID,23.4085,VALID,38,VALID,0.310547,
2009-04-23, 03:08:04,VALID,1000.22,VALID,0,VALID,93.9588,VALID,0,VALID,23.4085,VALID,38,VALID,0.203906,
2009-04-23, 03:09:04,VALID,1000.19,VALID,0,VALID,93.9359,VALID,0,VALID,23.389,VALID,38,VALID,0.00664063,
2009-04-23, 03:10:04,VALID,1000.21,VALID,0,VALID,93.9588,VALID,0,VALID,23.389,VALID,38,VALID,0,
2009-04-23, 03:11:04,VALID,1000.21,VALID,0,VALID,93.9283,VALID,0,VALID,23.389,VALID,38,VALID,0,
2009-04-23, 03:12:04,VALID,1000.21,VALID,0,VALID,93.9435,VALID,0,VALID,23.4103,VALID,38,VALID,0,
2009-04-23, 03:13:04,VALID,1000.22,VALID,0,VALID,93.9359,VALID,0,VALID,23.3908,VALID,38,VALID,0,
2009-04-23, 03:14:04,VALID,1000.17,VALID,0,VALID,93.974,VALID,0,VALID,23.3713,VALID,38,VALID,0,
2009-04-23, 03:15:04,VALID,1000.17,VALID,0,VALID,94.0732,VALID,0,VALID,23.3695,VALID,38,VALID,0,
2009-04-23, 03:16:04,VALID,1000.16,VALID,0,VALID,94.0503,VALID,0,VALID,23.3695,VALID,38,VALID,0.283594,
2009-04-23, 03:17:04,VALID,1000.15,VALID,0,VALID,94.058,VALID,0,VALID,23.3695,VALID,131,VALID,0.521484,
2009-04-23, 03:18:04,VALID,1000.13,VALID,0,VALID,94.1419,VALID,0,VALID,23.389,VALID,131,VALID,0.672656,
2009-04-23, 03:19:04,VALID,1000.14,VALID,0,VALID,94.18,VALID,0,VALID,23.4298,VALID,116,VALID,0.867188,
2009-04-23, 03:20:04,VALID,1000.12,VALID,0,VALID,94.2945,VALID,0,VALID,23.428,VALID,103,VALID,1.34258,
2009-04-23, 03:21:04,VALID,1000.12,VALID,0,VALID,94.2563,VALID,0,VALID,23.4688,VALID,109,VALID,1.14883,
2009-04-23, 03:22:04,VALID,1000.16,VALID,0,VALID,94.1953,VALID,0,VALID,23.4493,VALID,120,VALID,0.848047,
2009-04-23, 03:23:04,VALID,1000.17,VALID,0,VALID,94.1648,VALID,0,VALID,23.4493,VALID,117,VALID,0.674609,
2009-04-23, 03:24:04,VALID,1000.14,VALID,0,VALID,94.1419,VALID,0,VALID,23.4298,VALID,111,VALID,1.02852,
2009-04-23, 03:25:04,VALID,1000.15,VALID,0,VALID,94.18,VALID,0,VALID,23.4085,VALID,98,VALID,1.22695,
2009-04-23, 03:26:04,VALID,1000.18,VALID,0,VALID,94.2105,VALID,0,VALID,23.4493,VALID,95,VALID,0.986719,
2009-04-23, 03:27:04,VALID,1000.14,VALID,0,VALID,94.2182,VALID,0,VALID,23.4493,VALID,97,VALID,0.691016,
2009-04-23, 03:28:04,VALID,1000.13,VALID,0,VALID,94.1877,VALID,0,VALID,23.428,VALID,109,VALID,0.542578,
2009-04-23, 03:29:04,VALID,1000.14,VALID,0,VALID,94.1571,VALID,0,VALID,23.4085,VALID,127,VALID,0.707812,
2009-04-23, 03:30:04,VALID,1000.13,VALID,0,VALID,94.0885,VALID,0,VALID,23.3908,VALID,128,VALID,0.400391,
2009-04-23, 03:31:04,VALID,1000.14,VALID,0,VALID,94.0351,VALID,0,VALID,23.3908,VALID,128,VALID,0.180078,
2009-04-23, 03:32:04,VALID,1000.14,VALID,0,VALID,94.0503,VALID,0,VALID,23.35,VALID,128,VALID,0.0789063,
2009-04-23, 03:33:04,VALID,1000.13,VALID,0,VALID,94.0274,VALID,0,VALID,23.35,VALID,128,VALID,0.655469,
2009-04-23, 03:34:04,VALID,1000.15,VALID,0,VALID,94.0274,VALID,0,VALID,23.3908,VALID,128,VALID,0.802344,
2009-04-23, 03:35:04,VALID,1000.16,VALID,0,VALID,93.9588,VALID,0,VALID,23.3695,VALID,121,VALID,0.729297,
2009-04-23, 03:36:04,VALID,1000.17,VALID,0,VALID,93.8672,VALID,0,VALID,23.3908,VALID,121,VALID,0.351563,
2009-04-23, 03:37:04,VALID,1000.17,VALID,0,VALID,93.8748,VALID,0,VALID,23.4103,VALID,121,VALID,0.263672,
2009-04-23, 03:38:04,VALID,1000.21,VALID,0,VALID,93.7985,VALID,0,VALID,23.4103,VALID,121,VALID,0.715625,
2009-04-23, 03:39:04,VALID,1000.22,VALID,0,VALID,93.7299,VALID,0,VALID,23.4103,VALID,122,VALID,0.692187,
2009-04-23, 03:40:04,VALID,1000.24,VALID,0,VALID,93.6841,VALID,0,VALID,23.389,VALID,123,VALID,0.104687,
2009-04-23, 03:41:04,VALID,1000.23,VALID,0,VALID,93.6383,VALID,0,VALID,23.4103,VALID,123,VALID,0.273828,
2009-04-23, 03:42:04,VALID,1000.24,VALID,0,VALID,93.6688,VALID,0,VALID,23.4085,VALID,124,VALID,0.366406,
2009-04-23, 03:43:04,VALID,1000.22,VALID,0,VALID,93.7223,VALID,0,VALID,23.4085,VALID,124,VALID,0.260547,
2009-04-23, 03:44:04,VALID,1000.24,VALID,0,VALID,93.6994,VALID,0,VALID,23.4085,VALID,123,VALID,0.751172,
2009-04-23, 03:45:04,VALID,1000.22,VALID,0,VALID,93.2797,VALID,0,VALID,23.389,VALID,106,VALID,0.937891,
2009-04-23, 03:46:04,VALID,1000.22,VALID,0,VALID,93.1043,VALID,0,VALID,23.4103,VALID,93,VALID,0.932813,
2009-04-23, 03:47:04,VALID,1000.21,VALID,0,VALID,92.6465,VALID,0,VALID,23.389,VALID,89,VALID,0.900391,